Temp
12 12 12 11 11 11 11 11 11 11 11 11 11 11 11 10 10 11 11 10 10 10 10 10 10 10 11 11 11 11 10 10 10 10 10 10 10 10 10 10 10 10 10
12 12 11 11 11 11 11 11 11 11 11 11 11 11 11 11 10 10 10 10 10 10 10 10 10 10 10 10 10 11 10 10 10 10 10 10 10 10 10 10 10 10 10
12 11 11 11 11 11 11 11 11 10 10 10 11 11 11 11 10 10 10 10 10 10 10 10 9 10 10 10 10 10 10 10 10 10 9 10 10 10 10 9 9 9 9
11 11 11 11 11 11 11 11 10 10 10 10 10 10 11 11 10 10 10 10 10 10 10 10 10 10 9 9 10 10 10 10 10 10 9 9 9 9 9 9 9 9 9
11 11 11 11 11 10 10 10 10 10 10 10 10 10 10 10 10 10 9 9 9 10 9 9 9 9 9 9 9 9 9 9 9 9 9 9 9 9 8 8 8 8 8
11 11 11 11 10 10 10 10 10 10 10 10 10 10 10 10 10 10 10 9 9 9 9 9 9 9 9 9 9 9 9 9 9 9 9 8 8 8 8 8 7 8 8
11 11 10 10 10 10 10 10 10 10 10 10 9 10 10 10 9 9 9 9 9 8 8 8 8 8 8 8 8 8 8 9 8 8 8 8 8 7 7 7 7 7 7
10 10 10 10 10 10 10 10 10 9 9 9 9 9 9 9 9 9 9 8 8 8 8 8 8 8 8 8 8 8 8 8 8 8 8 8 7 7 7 7 7 7 7
10 10 10 10 10 10 10 10 10 9 9 9 9 9 9 9 9 9 9 8 8 8 8 8 8 8 8 8 8 8 8 8 8 7 7 7 7 7 7 7 7 7 7
9 10 10 10 10 10 9 9 9 9 9 9 9 9 9 8 8 8 8 8 8 8 8 8 8 7 7 7 7 7 7 7 7 7 7 7 7 7 7 7 7 7 6
9 9 9 9 9 9 9 9 9 9 9 9 9 9 8 8 8 8 8 8 8 8 8 8 7 7 7 7 7 7 7 7 7 6 6 7 7 7 6 7 7 7 7
9 9 9 9 9 9 9 9 9 9 9 9 9 9 8 8 8 8 8 8 8 8 8 8 7 7 7 7 7 7 6 6 7 6 6 6 6 7 7 6 7 7 7
8 8 8 8 9 9 9 9 9 9 9 9 8 9 8 8 8 8 8 8 8 7 7 7 7 7 7 7 7 7 6 6 6 6 6 6 6 6 6 6 6 6 6
8 8 8 8 8 8 9 9 9 9 8 8 8 8 8 8 8 8 8 8 7 7 7 7 7 7 7 7 7 7 6 6 6 6 6 6 6 6 6 6 6 6 6
7 7 8 8 8 8 8 8 8 8 8 8 8 8 8 8 8 8 8 7 7 7 7 7 7 7 7 7 6 6 6 6 6 6 6 6 6 6 6 6 6 5 5
6 7 7 8 8 8 8 8 8 8 7 8 8 8 8 8 7 7 7 7 7 7 6 6 6 6 6 6 6 6 6 6 6 6 6 6 6 5 5 5 5 5 5
6 6 6 7 7 8 8 8 8 7 7 7 7 7 7 7 7 7 7 7 7 7 6 6 6 6 6 6 6 6 6 5 5 5 5 5 5 5 5 5 4 5 5
6 5 6 6 6 7 7 7 7 7 7 7 7 7 7 7 7 7 7 6 7 6 6 6 6 6 5 5 5 5 5 5 5 5 5 4 4 4 4 4 4 4 4
6 6 5 5 6 6 6 6 6 7 6 6 6 6 6 6 6 6 6 6 6 6 5 5 5 5 5 5 5 5 5 5 5 5 4 4 4 4 4 3 3 3 3
6 5 5 5 5 5 5 6 6 6 6 6 6 6 6 6 6 6 6 6 5 5 5 5 5 4 4 4 4 4 4 4 4 4 4 4 3 3 3 3 3 3 3
6 6 5 5 4 5 5 5 5 6 6 6 6 6 6 6 5 5 6 6 5 4 5 4 4 4 4 3 3 4 3 3 3 3 3 3 3 3 3 3 3 3 3
6 6 6 6 5 4 4 5 4 4 5 5 5 5 5 5 5 5 5 5 5 4 4 4 4 4 3 3 3 3 3 3 3 3 3 3 3 3 3 3 3 3 3
6 6 6 6 5 4 4 4 5 4 4 5 5 5 5 5 4 4 5 5 4 4 4 4 4 3 2 2 2 3 3 3 3 3 3 2 2 2 2 2 2 2 2
6 5 5 5 5 5 4 4 4 4 4 4 4 5 4 4 4 4 4 5 4 3 3 3 3 2 2 2 2 2 2 2 2 2 2 2 2 2 2 1 2 2 2
6 5 5 5 5 4 4 4 4 4 4 3 3 3 4 4 4 4 4 4 4 3 3 2 1 0 1 1 1 1 2 2 2 2 2 1 1 1 1 1 1 1 1
5 5 6 6 5 5 4 3 3 3 3 4 3 3 3 4 3 4 4 4 4 2 2 2 0 0 1 1 1 1 1 1 1 1 1 1 1 1 0 -0 0 0 0
Height
3165 3167 3168 3170 3171 3171 3171 3171 3170 3169 3168 3167 3166 3164 3163 3162 3161 3160 3159 3157 3156 3156 3156 3157 3157 3156 3157 3158 3159 3160 3161 3162 3163 3163 3163 3163 3164 3163 3163 3163 3162 3162 3162
3165 3166 3167 3169 3170 3171 3172 3171 3170 3169 3168 3167 3166 3165 3163 3162 3161 3160 3159 3158 3158 3157 3157 3157 3157 3157 3157 3158 3158 3159 3160 3161 3162 3162 3162 3162 3162 3162 3161 3161 3161 3161 3160
3163 3165 3166 3167 3169 3170 3171 3171 3170 3170 3168 3167 3166 3165 3163 3162 3161 3160 3159 3158 3158 3158 3158 3158 3158 3158 3158 3158 3159 3159 3160 3160 3161 3160 3161 3161 3161 3160 3160 3160 3159 3159 3158
3162 3164 3165 3166 3168 3169 3170 3170 3171 3170 3169 3168 3167 3165 3164 3162 3160 3160 3159 3159 3158 3158 3159 3159 3159 3159 3159 3159 3159 3160 3160 3160 3160 3160 3160 3159 3159 3159 3158 3157 3157 3156 3156
3162 3163 3165 3166 3167 3168 3169 3169 3170 3169 3169 3168 3167 3166 3164 3162 3161 3159 3159 3158 3159 3159 3159 3159 3158 3158 3158 3158 3159 3159 3159 3159 3159 3159 3159 3159 3158 3157 3156 3156 3155 3154 3153
3161 3162 3163 3165 3166 3167 3168 3168 3169 3169 3168 3168 3166 3166 3164 3163 3161 3160 3159 3158 3158 3158 3158 3158 3158 3158 3158 3158 3158 3158 3158 3158 3158 3158 3157 3156 3155 3156 3155 3154 3153 3153 3152
3160 3161 3162 3164 3165 3166 3167 3168 3168 3168 3168 3167 3167 3166 3165 3163 3162 3161 3160 3159 3159 3158 3158 3159 3158 3158 3158 3158 3157 3157 3158 3158 3158 3157 3156 3155 3154 3153 3153 3152 3151 3151 3150
3159 3160 3161 3162 3163 3165 3166 3167 3167 3168 3168 3168 3167 3166 3165 3164 3163 3162 3161 3160 3160 3160 3160 3160 3160 3160 3159 3159 3158 3157 3157 3157 3156 3155 3155 3153 3152 3151 3151 3150 3149 3149 3148
3157 3157 3159 3160 3161 3163 3164 3165 3166 3166 3167 3167 3166 3166 3165 3165 3163 3163 3162 3161 3161 3161 3160 3160 3160 3160 3159 3158 3158 3156 3157 3156 3155 3153 3151 3150 3150 3150 3149 3148 3147 3146 3146
3154 3155 3157 3158 3159 3160 3162 3163 3164 3164 3165 3165 3165 3165 3165 3165 3164 3164 3163 3162 3162 3161 3161 3161 3160 3159 3159 3158 3157 3155 3155 3154 3153 3151 3149 3148 3147 3147 3146 3145 3144 3143 3143
3151 3153 3154 3155 3156 3158 3159 3160 3161 3162 3163 3163 3164 3164 3164 3163 3164 3164 3163 3163 3162 3162 3161 3161 3160 3159 3158 3157 3155 3153 3154 3153 3151 3150 3147 3146 3146 3144 3144 3142 3141 3140 3140
3147 3149 3151 3152 3153 3155 3156 3158 3159 3160 3161 3161 3162 3162 3162 3162 3162 3163 3162 3162 3161 3162 3161 3160 3159 3158 3156 3155 3154 3152 3151 3151 3149 3148 3146 3143 3143 3141 3141 3139 3138 3137 3137
3143 3144 3147 3148 3150 3151 3153 3154 3156 3157 3158 3159 3159 3159 3160 3160 3161 3161 3160 3160 3160 3160 3159 3158 3157 3156 3155 3153 3152 3150 3149 3148 3146 3145 3143 3141 3139 3139 3138 3136 3136 3135 3135
3139 3141 3142 3144 3146 3148 3149 3151 3153 3154 3154 3155 3156 3156 3157 3158 3158 3158 3158 3157 3157 3157 3157 3156 3155 3153 3152 3151 3149 3147 3147 3146 3144 3142 3140 3138 3136 3135 3134 3133 3133 3132 3132
3133 3136 3138 3140 3142 3144 3146 3147 3149 3150 3150 3151 3152 3153 3153 3154 3155 3155 3155 3154 3155 3154 3154 3153 3152 3151 3150 3148 3146 3144 3144 3142 3141 3139 3137 3135 3133 3132 3131 3130 3129 3129 3129
3127 3130 3133 3135 3137 3139 3141 3143 3145 3145 3147 3147 3148 3149 3150 3151 3151 3151 3152 3151 3151 3150 3150 3150 3149 3149 3147 3146 3144 3141 3141 3139 3137 3135 3134 3132 3130 3129 3128 3126 3125 3125 3124
3121 3122 3124 3128 3130 3133 3135 3136 3139 3141 3142 3143 3143 3145 3146 3146 3147 3147 3148 3147 3147 3147 3146 3146 3145 3145 3143 3141 3140 3138 3137 3136 3134 3132 3130 3129 3128 3126 3125 3124 3122 3121 3119
3115 3116 3118 3119 3122 3125 3128 3130 3132 3135 3136 3138 3138 3140 3142 3142 3143 3143 3143 3143 3143 3142 3142 3141 3141 3140 3139 3137 3136 3135 3133 3132 3131 3129 3127 3126 3124 3123 3121 3120 3118 3116 3115
3109 3110 3112 3112 3113 3117 3121 3123 3125 3128 3130 3131 3132 3134 3136 3137 3137 3138 3138 3138 3138 3137 3136 3136 3136 3135 3133 3133 3132 3131 3130 3128 3128 3126 3124 3122 3120 3119 3117 3115 3114 3112 3110
3102 3105 3106 3107 3107 3111 3113 3115 3118 3120 3123 3125 3125 3127 3129 3130 3131 3132 3132 3132 3132 3132 3132 3131 3130 3129 3129 3128 3128 3127 3126 3124 3123 3122 3121 3119 3116 3115 3113 3111 3109 3107 3104
3090 3094 3099 3100 3102 3103 3104 3106 3110 3113 3116 3118 3119 3121 3123 3125 3126 3126 3126 3126 3127 3127 3127 3126 3125 3125 3124 3124 3123 3123 3122 3120 3119 3118 3117 3115 3113 3111 3109 3106 3104 3101 3099
3081 3084 3087 3090 3094 3096 3097 3100 3102 3106 3109 3111 3113 3116 3117 3119 3120 3121 3121 3121 3122 3122 3121 3121 3120 3119 3119 3119 3119 3119 3118 3117 3115 3114 3112 3110 3109 3107 3104 3102 3098 3095 3092
3072 3075 3078 3081 3084 3087 3090 3091 3094 3096 3098 3102 3105 3108 3110 3112 3113 3115 3115 3115 3115 3116 3115 3115 3115 3114 3115 3115 3114 3115 3113 3112 3110 3109 3107 3105 3103 3101 3098 3095 3091 3088 3085
3064 3067 3069 3072 3074 3076 3079 3081 3084 3087 3088 3092 3098 3101 3104 3106 3107 3109 3110 3109 3110 3110 3109 3109 3109 3109 3109 3109 3109 3109 3108 3107 3105 3104 3102 3099 3096 3093 3091 3087 3083 3079 3075
3054 3056 3059 3061 3064 3067 3068 3070 3075 3077 3080 3083 3088 3092 3095 3098 3100 3101 3103 3103 3104 3104 3104 3103 3103 3104 3104 3104 3104 3103 3102 3101 3100 3098 3096 3093 3090 3086 3083 3079 3074 3070 3066
3049 3050 3051 3053 3055 3058 3058 3060 3064 3065 3072 3075 3079 3083 3086 3089 3092 3094 3096 3097 3097 3098 3098 3098 3098 3099 3098 3098 3097 3096 3095 3094 3092 3090 3089 3086 3084 3082 3077 3072 3067 3061 3057
Wind_Speed
12 10 6 2 3 6 9 9 8 5 6 7 7 7 6 5 5 6 6 4 3 1 2 4 4 4 3 3 4 8 9 9 8 8 9 9 9 9 9 9 10 10 9
14 11 7 4 1 4 9 9 7 6 6 6 8 9 8 5 4 4 5 3 2 1 2 2 2 1 1 2 3 6 7 7 7 7 8 8 9 10 10 11 11 11 11
14 11 9 7 4 1 6 9 7 6 6 7 8 8 9 7 4 3 3 3 2 2 2 2 2 1 1 1 2 2 3 4 5 7 7 9 10 10 11 12 12 12 12
14 11 10 8 6 3 4 7 6 6 6 8 8 8 9 9 6 3 3 3 2 2 1 1 0 1 1 1 2 3 4 6 7 8 8 9 11 11 12 12 12 11 10
12 11 10 8 5 1 2 4 5 5 6 7 9 10 9 9 8 6 3 3 4 3 2 2 2 2 3 3 4 5 6 7 8 9 9 9 11 11 11 10 10 10 10
11 11 11 9 6 1 1 3 5 5 5 7 8 9 10 9 9 9 8 5 4 4 4 4 4 4 4 4 5 5 6 7 7 7 8 8 8 8 8 8 8 9 9
13 14 13 12 4 2 3 3 6 6 6 7 7 8 8 9 9 10 10 9 8 6 5 4 3 3 3 3 4 5 6 6 6 6 6 6 7 7 7 7 8 9 9
14 15 16 15 8 5 5 7 6 6 6 6 7 6 8 10 11 10 9 9 8 8 7 6 5 5 5 5 6 6 7 8 8 8 7 8 8 9 8 9 10 10 11
15 17 18 17 11 10 8 10 9 8 7 5 5 5 6 8 9 10 10 10 9 8 7 6 5 5 6 7 8 9 9 10 10 11 11 11 11 11 11 12 13 13 14
19 19 20 19 15 13 12 13 13 11 10 8 5 5 5 5 7 7 8 9 9 9 9 8 7 7 8 8 10 12 11 11 12 13 14 14 13 13 14 15 15 15 14
19 23 23 22 19 16 15 15 15 13 13 11 10 8 6 6 5 6 7 8 8 8 8 8 9 9 10 11 12 14 13 12 12 13 15 16 14 14 15 16 17 17 15
18 19 23 23 21 19 18 18 17 17 15 14 14 12 10 8 8 8 8 7 7 8 9 9 10 10 11 12 13 15 15 14 14 14 16 17 16 15 16 16 16 14 13
18 18 19 21 22 22 21 21 20 19 19 18 16 15 14 12 11 10 11 10 10 9 9 11 11 12 12 13 14 15 15 16 16 16 17 18 18 16 15 15 15 14 13
24 23 22 21 22 22 22 21 21 22 21 21 20 19 17 17 16 13 13 13 13 13 13 14 14 14 15 15 16 17 16 16 16 17 18 18 17 16 14 14 14 14 14
31 28 26 25 23 23 22 22 22 22 22 23 23 22 21 18 17 17 15 15 16 16 16 16 16 16 17 17 18 19 17 17 17 17 17 18 17 15 14 14 14 15 15
32 36 36 34 32 30 26 24 23 22 22 23 23 24 23 21 21 19 17 17 18 18 18 18 18 18 19 19 19 20 19 18 18 17 17 17 17 16 15 15 15 16 17
32 31 33 36 35 33 30 29 27 25 24 22 23 23 23 23 24 19 18 19 18 19 20 20 20 20 21 20 20 21 21 18 17 17 17 17 17 18 17 17 17 18 19
37 36 35 34 35 34 30 29 30 27 24 25 24 22 23 24 23 20 19 20 22 23 23 21 22 23 23 22 21 21 21 19 18 17 16 17 17 18 19 19 20 22 23
42 40 39 38 38 36 34 32 31 30 27 28 28 25 24 22 20 22 24 25 26 26 24 23 24 25 25 23 22 20 19 18 16 15 15 15 16 17 19 21 22 24 26
48 45 43 41 42 39 36 34 32 33 32 30 31 29 25 22 22 21 22 25 26 25 24 25 25 25 24 24 22 19 17 16 14 14 15 16 16 18 20 22 24 26 28
53 55 54 47 43 44 45 39 37 36 35 33 32 31 27 23 21 22 23 25 25 26 25 25 25 24 24 23 21 19 17 15 14 14 15 16 18 20 22 24 25 27 29
40 44 47 48 53 45 44 43 38 39 38 36 35 33 31 28 24 24 25 26 25 26 26 24 23 23 23 22 21 19 18 16 16 17 18 20 22 24 25 27 29 31 32
38 37 38 42 51 52 48 48 46 42 44 40 39 38 36 31 28 26 26 27 27 27 27 24 22 22 23 22 21 20 19 18 19 20 22 24 26 28 29 31 33 35 36
41 42 42 41 43 51 58 54 51 49 48 45 41 40 37 35 33 28 28 28 29 29 28 25 23 22 23 23 22 22 21 21 21 23 24 27 29 31 32 34 35 38 39
34 41 45 47 47 48 51 54 57 52 50 46 42 41 39 40 38 35 31 31 30 31 30 28 25 22 24 25 24 24 24 24 25 26 27 30 32 34 35 36 38 40 41
23 28 33 38 45 49 52 54 57 58 53 51 46 45 45 41 40 38 32 32 33 34 31 26 27 23 26 27 27 27 27 27 28 30 30 32 34 34 36 37 40 42 43
Wind_Direction
173 157 138 112 65 46 26 23 12 1 9 15 9 356 342 336 327 333 334 334 341 337 144 173 188 207 205 183 193 211 223 232 242 250 257 258 264 274 284 291 297 298 295
181 175 158 155 87 41 17 11 359 357 0 9 13 11 360 336 334 340 348 359 15 87 113 130 153 179 173 114 174 198 213 228 244 258 266 272 274 280 285 287 289 292 295
186 185 172 167 160 1 18 358 342 353 7 11 17 17 15 3 343 345 359 18 27 41 75 117 151 166 150 145 238 224 238 248 248 256 264 269 275 281 287 290 292 296 296
190 184 181 173 165 144 22 2 336 348 1 9 15 18 22 24 20 12 17 23 33 41 48 67 44 337 336 273 255 261 261 261 263 269 276 282 286 289 286 291 297 299 295
206 186 190 187 176 141 352 15 323 327 351 6 7 15 22 28 35 39 43 39 33 21 10 360 353 333 321 308 294 284 276 274 279 283 288 289 288 289 293 296 298 297 299
214 204 199 195 171 248 255 352 306 318 342 2 11 15 25 29 39 49 51 49 45 40 29 18 12 359 344 330 318 307 300 296 297 301 290 291 289 292 296 305 306 302 298
227 213 205 193 198 239 245 307 304 303 322 346 2 17 29 37 42 49 53 56 56 56 54 40 30 19 355 339 324 318 317 319 327 313 308 298 299 303 305 313 303 300 305
223 215 207 199 215 232 238 245 265 284 304 328 347 15 37 45 48 50 53 55 52 50 49 43 28 16 4 345 335 331 327 332 323 313 310 304 303 302 310 305 295 302 298
224 215 215 210 231 235 241 245 255 262 276 306 326 349 19 34 46 47 51 53 51 44 39 29 16 360 346 338 332 323 327 325 321 315 312 306 304 302 302 290 290 292 288
226 221 218 225 238 237 243 243 251 260 268 272 282 308 332 5 19 27 32 42 44 43 36 24 9 352 337 335 329 320 328 326 321 314 309 303 302 302 297 294 291 286 289
234 231 225 229 235 236 243 245 251 259 263 274 275 277 288 309 332 348 356 5 15 17 17 13 7 360 345 338 330 322 329 326 319 311 305 300 302 299 295 293 289 289 290
240 240 236 233 237 239 247 245 251 257 260 268 270 272 270 278 294 300 311 322 335 341 346 346 348 348 343 340 331 324 327 325 320 312 305 302 302 297 296 289 290 289 283
247 241 241 241 241 242 244 244 251 255 260 262 264 264 268 273 276 284 293 295 303 312 318 319 325 329 329 330 327 320 322 323 319 313 306 303 301 298 294 290 288 287 284
246 248 245 244 245 247 246 249 251 254 258 261 258 258 262 275 279 276 284 283 290 295 300 303 308 314 317 318 320 318 320 317 313 310 305 301 298 295 291 288 288 288 286
247 246 248 250 251 249 249 250 252 255 259 257 258 258 261 266 270 271 271 279 284 286 289 293 298 303 306 310 311 310 313 313 312 309 304 301 298 293 289 287 287 284 284
250 248 247 250 251 253 254 255 256 254 261 262 264 263 263 264 265 266 268 276 279 280 282 285 288 292 296 300 302 303 305 308 308 309 307 302 298 294 289 284 281 282 281
244 251 251 252 252 250 251 256 257 259 260 262 263 263 263 262 266 263 267 271 275 277 279 284 286 288 290 291 294 296 300 305 305 307 305 302 298 295 292 288 286 281 279
239 241 246 251 255 254 252 254 258 260 261 262 261 257 249 253 259 265 271 274 277 277 280 283 284 286 285 285 286 289 295 299 301 302 302 302 300 296 294 292 289 287 284
243 243 243 246 253 257 260 256 255 257 256 255 256 254 255 255 256 265 268 272 275 278 279 281 282 283 282 280 279 282 287 292 295 299 304 304 305 303 299 295 290 288 287
241 241 242 238 245 253 253 257 253 253 252 250 255 260 258 259 266 266 270 270 271 271 276 280 282 281 278 275 275 278 280 283 291 298 305 310 312 311 308 303 301 298 294
241 241 239 238 240 248 250 250 251 251 254 254 255 259 260 262 262 269 276 278 270 272 276 279 278 276 272 270 271 273 273 278 288 298 304 309 311 312 311 308 304 299 294
235 239 238 237 236 237 245 250 249 259 257 254 257 259 258 259 260 269 277 282 271 270 279 279 276 271 267 266 265 266 269 276 285 295 302 307 309 309 308 307 305 301 297
241 239 237 234 229 232 237 243 246 246 251 252 253 254 256 256 260 269 276 279 272 273 281 281 278 268 262 260 260 263 267 272 282 291 300 304 306 307 307 306 304 302 300
239 239 239 238 237 232 236 241 246 249 252 255 258 261 260 255 257 261 272 276 271 274 281 281 282 265 259 256 256 259 265 274 284 292 297 302 306 308 307 305 304 303 300
241 240 237 237 237 240 240 241 242 246 250 254 254 257 259 257 254 260 265 272 269 267 276 277 287 271 261 256 257 260 267 275 283 290 296 302 306 308 308 306 305 303 301
263 263 256 249 243 238 240 242 241 243 246 249 250 253 259 259 256 258 259 269 269 259 267 270 280 271 262 258 259 263 269 276 282 288 293 297 302 304 304 304 303 302 300